Location: ?????????
(54.7630°N, 39.4991°E)
Time: 11:48:03
(UTC+00:00)

NOSS 3-1 (A) - Pass Details

Date: 14 April 2026
Orbit: 613 x 1593 km, 63.4° (Epoch: 10 January)

Event Time Altitude Azimuth Distance (km) Brightness Sun altitude
Rises 19:04:27 0° 304° (NW) 3,472 7.7 -19.4°
Reaches altitude 10° 19:06:46 10° 309° (NW) 2,655 6.9 -19.6°
Maximum altitude 19:12:59 58° 28° (NNE) 1,286 4.2 -20.1°
Enters shadow 19:18:50 19° 102° (ESE) 2,658 5.4 -20.6°
